Location: Bessat
(45.8735°N, 1.9924°E)
Time: 08:37:50
(UTC+00:00)

ARIANE 5 R/B - Pass Details

Date: 11 May 2021
Orbit: 620 x 656 km, 98.1° (Epoch: 13 June)

Event Time Altitude Azimuth Distance (km) Brightness Sun altitude
Exits shadow 20:52:23 25° 143° (SE) 1,276 3.5 -14.6°
Maximum altitude 20:54:47 58° 73° (ENE) 725 2.7 -14.9°
Drops below altitude 10° 20:59:02 10° 354° (N) 1,998 6.0 -15.4°
Sets 21:01:15 0° 351° (N) 2,911 7.0 -15.7°
